Back to catalog

HULIANWANG DIGUI-53

AliveCommunicationsLEO
NORAD 65110·PAYLOAD·🇨🇳 China

Launched Aug 4, 2025 from Wenchang Space Launch Site

Loading…

Next Passes (next 24 hours)

TLE

FreshSource: Space-Track

Epoch: Sep 14, 2026, 14:11 UTC

1 65110U 25168E   26257.59122042 -.00000093  00000-0  67725-4 0  9996
2 65110  50.0060   5.0399 0008207 358.6084   1.4764 13.29330223 54585

Track HULIANWANG DIGUI-53 in real time with AllMySat

Download on the App Store